This is the latest recevied weather packets stored in our database for station/object N5TSS. If no packets are shown the sender has not sent any weather packets the latest 1 day(s).
| Time | Temp. | Humidity | Pressure | Rain* | Wind** | Luminosity | Snow |
|---|---|---|---|---|---|---|---|
| 1778041506 | 25° C | 83% | 1010.2 hPa | 0 mm | 2.24 m/s, 170° | - | - |
| 1778041203 | 25° C | 83% | 1010.2 hPa | 0 mm | 1.79 m/s, 161° | - | - |
| 1778040902 | 25° C | 83% | 1010.2 hPa | 0 mm | 0.89 m/s, 188° | - | - |
| 1778040598 | 25° C | 83% | 1009.8 hPa | 0 mm | 2.24 m/s, 147° | - | - |
| 1778040296 | 25° C | 83% | 1009.8 hPa | 0 mm | 1.34 m/s, 191° | - | - |
| 1778039992 | 25° C | 83% | 1010.2 hPa | 0 mm | 0.89 m/s, 146° | - | - |
| 1778039689 | 25° C | 83% | 1010.2 hPa | 0 mm | 1.34 m/s, 156° | - | - |
| 1778039385 | 25° C | 83% | 1010.2 hPa | 0 mm | 1.34 m/s, 142° | - | - |
| 1778039083 | 25° C | 83% | 1009.8 hPa | 0 mm | 1.34 m/s, 165° | - | - |
| 1778038780 | 25° C | 83% | 1009.8 hPa | 0 mm | 1.79 m/s, 161° | - | - |
| 1778038478 | 25° C | 82% | 1009.8 hPa | 0 mm | 0.89 m/s, 144° | - | - |
| 1778038174 | 25° C | 82% | 1009.5 hPa | 0 mm | 1.34 m/s, 167° | - | - |
| 1778037871 | 25.56° C | 82% | 1009.8 hPa | 0 mm | 1.34 m/s, 194° | - | - |
| 1778037568 | 25.56° C | 82% | 1009.8 hPa | 0 mm | 1.34 m/s, 174° | - | - |
| 1778037265 | 25.56° C | 82% | 1009.8 hPa | 0 mm | 1.79 m/s, 158° | - | - |
| 1778036963 | 25.56° C | 82% | 1009.8 hPa | 0 mm | 1.79 m/s, 155° | - | - |
| 1778036661 | 25.56° C | 82% | 1009.8 hPa | 0 mm | 1.34 m/s, 185° | - | - |
| 1778036357 | 25.56° C | 82% | 1009.5 hPa | 0 mm | 0.89 m/s, 162° | - | - |
| 1778036054 | 25.56° C | 82% | 1009.5 hPa | 0 mm | 1.79 m/s, 158° | - | - |
| 1778035751 | 25.56° C | 82% | 1009.5 hPa | 0 mm | 0.89 m/s, 146° | - | - |
| 1778035448 | 25.56° C | 82% | 1009.8 hPa | 0 mm | 0.89 m/s, 166° | - | - |
| 1778035144 | 25.56° C | 81% | 1009.8 hPa | 0 mm | 0.45 m/s, 191° | - | - |
| 1778034841 | 25.56° C | 81% | 1009.5 hPa | 0 mm | 0 m/s | - | - |
| 1778034537 | 25.56° C | 80% | 1009.1 hPa | 0 mm | 0.89 m/s, 153° | - | - |
| 1778034235 | 25.56° C | 80% | 1009.1 hPa | 0 mm | 1.34 m/s, 179° | - | - |
* Rain latest hour (hover to see other rain measurements)
** Current wind speed in m/s (hover to see current wind gust speed)